www.pogodaiklimat.ru

Погода и климат >> Архив погоды >> Германия >> Berlin


АРХИВ ПОГОДЫ в Berlin

Время (UTC), дата Ветер
(напр.,м/с)
 
Видим.   Явления Облачность Т
(С)
Тd
(С)
f
(%)
Тe
(С)
Тes
(С)
Комфортность P
(гПа)
Po
(гПа)
Тmin
(С)
Tmax
(С)
R
(мм)
R24
(мм)
S
(см)
17 20.05 СЗ 5-8
{10}
н/о н/о +18.2 +7.7 50 +18 +18 тепло 1021.5 1015.7
16 20.05 СЗ 5-8
{9}
н/о н/о +19.8 +8.7 49 +21 +21 комфорт 1021.1 1015.3
18 20.05 СЗ 6 н/о н/о +17.7 +7.7 52 +17 +17 по сезону 1022.1 1016.3 +13.2 +19.8
19 20.05 С 3-5
{7}
н/о н/о +16.5 +7.9 57 +16 +16 тепло 1022.7 1016.8
20 20.05 С 2-3
{5}
н/о н/о +15.0 +7.7 62 +15 +15 тепло 1023.4 1017.5
21 20.05 С 2-2
{7}
н/о н/о +14.0 +8.0 67 +14 +14 по сезону 1023.8 1017.9
23 20.05 СВ 1-2
{4}
н/о н/о +12.7 +8.2 74 +13 +13 тепло 1024.9 1018.9
22 20.05 С 2-3
{3}
н/о н/о +13.2 +7.8 70 +13 +13 тепло 1024.3 1018.4
00 21.05 СЗ 1 н/о н/о +12.2 +8.5 78 +12 +12 по сезону 1025.0 1019.0
01 21.05 С 3-4
{4}
н/о н/о +11.3 +7.9 80 +10 +10 по сезону 1025.2 1019.2
02 21.05 СЗ 4-5
{5}
н/о н/о +11.6 +8.2 80 +9 +9 по сезону 1025.3 1019.3
03 21.05 СЗ 3-4
{5}
н/о н/о +11.1 +7.6 79 +9 +9 по сезону 1025.4 1019.4
05 21.05 СЗ 3-4
{4}
н/о н/о +12.9 +8.5 75 +12 +12 тепло 1026.2 1020.2
04 21.05 СЗ 3-3
{4}
н/о н/о +10.9 +7.7 81 +9 +9 по сезону 1025.7 1019.7
06 21.05 С 4 н/о н/о +14.4 +8.5 68 +13 +13 по сезону 1026.5 1020.6 +10.6 +17.7
07 21.05 С 5-6
{6}
н/о н/о +15.8 +7.5 58 +15 +15 по сезону 1026.8 1020.9
08 21.05 СЗ 5-7
{8}
н/о н/о +17.4 +7.9 54 +17 +17 тепло 1027.0 1021.1
09 21.05 СЗ 3 н/о н/о +18.4 +8.4 52 +19 +19 тепло 1027.1 1021.2
11 21.05 СЗ 3-5
{7}
н/о н/о +19.8 +6.5 42 +21 +21 комфорт 1026.6 1020.8
10 21.05 С 3-7
{8}
н/о н/о +18.7 +6.8 46 +19 +19 по сезону 1027.0 1021.2
12 21.05 С 4-6
{8}
н/о н/о +20.0 +6.3 41 +21 +21 комфорт 1026.2 1020.4
13 21.05 С 5-10
{10}
н/о н/о +20.5 +5.9 39 +21 +21 комфорт 1026.0 1020.2
14 21.05 СЗ 3-6
{7}
н/о н/о +20.8 +5.9 38 +22 +22 комфорт 1025.7 1019.9
15 21.05 СЗ 4-7
{10}
н/о н/о +22.0 +5.0 33 +22 +22 комфорт 1025.2 1019.4
17 21.05 С 4-7
{7}
н/о н/о +20.4 +5.2 37 +21 +21 комфорт 1024.5 1018.7
16 21.05 С 4-6
{7}
н/о н/о +21.3 +6.1 37 +22 +22 комфорт 1024.9 1019.1
18 21.05 СВ 4 н/о н/о +19.3 +6.2 42 +20 +20 тепло 1024.4 1018.6 +14.5 +22.1
19 21.05 СВ 4-7
{7}
н/о н/о +17.5 +6.6 49 +17 +17 тепло 1024.7 1018.8
20 21.05 СВ 3-5
{6}
н/о н/о +15.7 +6.9 56 +15 +15 тепло 1024.8 1018.9
21 21.05 СВ 2-4
{7}
н/о н/о +14.4 +6.7 60 +14 +14 по сезону 1025.0 1019.1
23 21.05 В 3-5
{5}
н/о н/о +12.7 +6.9 68 +11 +11 тепло 1024.9 1018.9
22 21.05 СВ 3-3
{4}
н/о н/о +13.3 +6.3 63 +12 +12 тепло 1025.0 1019.1
00 22.05 ЮВ 2 н/о н/о +12.9 +6.8 66 +12 +12 по сезону 1024.7 1018.7
01 22.05 ЮВ 1-1
{2}
н/о н/о +11.3 +6.7 73 +11 +11 тепло 1024.5 1018.5
02 22.05 штиль 0-1
{2}
н/о н/о +10.4 +6.7 78 +10 +10 по сезону 1024.5 1018.5
03 22.05 штиль 0
{2}
н/о н/о +10.1 +6.8 80 +9 +9 прохладно 1024.2 1018.2
05 22.05 штиль 0
{1}
н/о н/о +10.2 +7.1 81 +10 +10 по сезону 1024.3 1018.3
04 22.05 штиль 0-1
{1}
н/о н/о +9.7 +6.8 82 +9 +9 по сезону 1024.2 1018.2
06 22.05 штиль 0 н/о н/о +15.2 +7.9 62 +15 +15 тепло 1023.9 1018.0 +9.6 +19.3
07 22.05 ЮВ 2-3
{3}
н/о н/о +17.0 +6.3 49 +17 +17 тепло 1023.8 1017.9
08 22.05 В 3-4
{4}
н/о н/о +18.4 +6.5 46 +19 +19 тепло 1023.4 1017.6
09 22.05 СВ 2 н/о н/о +19.5 +6.8 44 +21 +21 комфорт 1022.9 1017.1
11 22.05 СВ 2-5
{5}
н/о н/о +19.8 +5.9 40 +21 +21 комфорт 1022.1 1016.3
10 22.05 В 4-6
{7}
н/о н/о +20.4 +5.9 39 +21 +21 комфорт 1022.5 1016.7
12 22.05 В 4-6
{7}
н/о н/о +19.7 +6.4 42 +20 +20 тепло 1021.5 1015.7
13 22.05 Ю 3-5
{6}
н/о н/о +22.3 +6.3 35 +23 +23 комфорт 1020.7 1015.0
14 22.05 СВ 3-5
{6}
н/о н/о +21.2 +5.8 37 +22 +22 комфорт 1020.1 1014.3
15 22.05 В 2-5
{6}
н/о н/о +22.6 +5.8 34 +23 +23 комфорт 1019.5 1013.8
17 22.05 СВ 2-5
{5}
н/о н/о +20.6 +6.6 40 +22 +22 комфорт 1018.6 1012.8
16 22.05 СЗ 2-2
{6}
н/о н/о +21.9 +5.2 34 +22 +22 комфорт 1018.9 1013.2
18 22.05 В 3 н/о н/о +19.2 +6.7 44 +20 +20 тепло 1018.4 1012.6 +15.2 +22.8
19 22.05 В 3-5
{5}
н/о н/о +18.1 +6.4 46 +18 +18 тепло 1018.0 1012.2
20 22.05 В 3-4
{5}
н/о н/о +16.4 +6.9 53 +16 +16 тепло 1018.0 1012.2
21 22.05 В 3-3
{5}
н/о н/о +16.1 +7.0 55 +16 +16 тепло 1018.1 1012.3
23 22.05 В 3-4
{4}
н/о н/о +14.1 +7.3 64 +13 +13 тепло 1018.1 1012.2
22 22.05 В 3-4
{4}
н/о н/о +14.3 +7.1 62 +13 +13 тепло 1018.2 1012.3
00 23.05 В 2 н/о н/о +13.6 +7.3 66 +13 +13 по сезону 1017.7 1011.8
01 23.05 В 3-4
{5}
н/о н/о +12.7 +7.4 70 +11 +11 тепло 1017.3 1011.4
02 23.05 В 1-1
{4}
н/о н/о +11.4 +6.9 74 +11 +11 по сезону 1017.2 1011.3
03 23.05 В 1-2
{5}
н/о н/о +10.5 +7.0 79 +10 +10 по сезону 1017.2 1011.2
05 23.05 ЮВ 2-4
{4}
н/о н/о +13.6 +8.2 70 +13 +13 тепло 1017.1 1011.2
04 23.05 В 1-1
{2}
н/о н/о +10.9 +7.2 78 +11 +11 по сезону 1017.1 1011.2
06 23.05 ЮВ 3 н/о н/о +15.6 +8.0 61 +15 +15 тепло 1016.8 1011.0 +10.3 +19.1
07 23.05 ЮВ 2-3
{4}
н/о н/о +18.0 +9.6 58 +19 +19 тепло 1016.8 1011.0
08 23.05 Ю 2-4
{4}
н/о н/о +20.1 +8.2 46 +22 +22 комфорт 1016.6 1010.8
09 23.05 ЮЗ 2 н/о н/о +21.8 +8.0 41 +23 +23 комфорт 1016.3 1010.6
11 23.05 ЮЗ 2-5
{7}
н/о н/о +23.7 +7.3 35 +24 +24 комфорт 1015.5 1009.8
10 23.05 ЮЗ 3-6
{6}
н/о н/о +23.2 +6.0 33 +24 +24 комфорт 1016.0 1010.3
12 23.05 ЮЗ 2-6
{7}
н/о н/о +24.6 +6.3 31 +25 +25 комфорт 1015.1 1009.4
13 23.05 ЮЗ 4-10
{10}
н/о н/о +25.1 +5.5 28 +25 +25 комфорт 1014.5 1008.8
14 23.05 З 4-9
{11}
н/о н/о +25.1 +7.9 33 +25 +25 комфорт 1014.4 1008.7
15 23.05 СЗ 4-7
{11}
н/о н/о +24.8 +7.4 33 +25 +25 комфорт 1013.9 1008.2
17 23.05 СЗ 5-8
{8}
н/о н/о +24.6 +7.0 32 +25 +25 комфорт 1013.0 1007.3
16 23.05 ЮЗ 4-6
{9}
н/о н/о +24.6 +6.9 32 +25 +25 комфорт 1013.3 1007.6
18 23.05 З 3 н/о н/о +23.8 +7.9 36 +24 +24 комфорт 1013.1 1007.4 +15.6 +26.0
19 23.05 С 6-9
{22}
н/о н/о +15.0 +13.6 91 +13 +13 по сезону 1015.3 1009.5
20 23.05 С 3-3
{7}
н/о н/о +15.1 +14.0 93 +14 +14 по сезону 1014.7 1008.9
21 23.05 СЗ 3-3
{22}
н/о н/о +15.3 +14.0 92 +15 +15 по сезону 1015.2 1009.4 5
23 23.05 З 6-10
{10}
н/о н/о +14.2 +11.4 83 +12 +12 тепло 1016.0 1010.1
22 23.05 З 5-8
{8}
н/о н/о +15.3 +13.3 88 +14 +14 тепло 1015.4 1009.6
00 24.05 СЗ 8 н/о н/о +12.1 +9.2 82 +9 +9 по сезону 1016.5 1010.6 5
01 24.05 СЗ 8-12
{14}
н/о н/о +11.1 +7.9 81 +8 +8 по сезону 1016.8 1010.9
02 24.05 СЗ 7-11
{12}
н/о н/о +11.0 +7.5 79 +8 +8 прохладно 1017.0 1011.1
03 24.05 СЗ 7-11
{14}
н/о н/о +11.1 +7.5 78 +8 +8 прохладно 1017.3 1011.4
05 24.05 СЗ 7-12
{12}
н/о н/о +11.6 +6.6 71 +9 +9 по сезону 1017.8 1011.9
04 24.05 СЗ 6-10
{11}
н/о н/о +11.3 +7.5 77 +8 +8 прохладно 1017.6 1011.7
06 24.05 З 7 н/о н/о +11.7 +6.8 72 +9 +9 прохладно 1018.2 1012.3 +10.8 +23.8 5
07 24.05 СЗ 7-10
{12}
н/о н/о +11.8 +6.9 72 +9 +9 холодно 1018.7 1012.8
08 24.05 З 6-9
{11}
н/о н/о +13.1 +7.1 67 +11 +11 прохладно 1018.7 1012.8
09 24.05 З 7 н/о н/о +13.0 +7.4 69 +10 +10 холодно 1019.2 1013.3
11 24.05 СЗ 7-11
{12}
н/о н/о +14.4 +6.8 60 +12 +12 холодно 1019.4 1013.5
10 24.05 СЗ 8-12
{12}
н/о н/о +13.4 +6.6 63 +11 +11 очень
холодно
1019.3 1013.4
12 24.05 СЗ 7-10
{12}
н/о н/о +15.0 +7.1 59 +13 +13 холодно 1019.3 1013.4
13 24.05 СЗ 5-7
{10}
н/о н/о +15.2 +7.2 59 +14 +14 прохладно 1019.2 1013.3
14 24.05 СЗ 5-7
{9}
н/о н/о +16.2 +7.5 56 +15 +15 прохладно 1018.9 1013.1
15 24.05 СЗ 5-8
{10}
н/о н/о +15.8 +6.0 52 +15 +15 прохладно 1019.2 1013.3
17 24.05 СЗ 6-9
{10}
н/о н/о +15.3 +6.8 57 +14 +14 по сезону 1019.5 1013.6
16 24.05 С 7-9
{11}
н/о н/о +14.9 +6.5 57 +13 +13 прохладно 1019.7 1013.8
18 24.05 СЗ 5 н/о н/о +15.2 +7.2 59 +14 +14 прохладно 1020.0 1014.1 +11.6 +16.3
19 24.05 СЗ 4-5
{8}
н/о н/о +14.4 +7.1 62 +13 +13 по сезону 1020.1 1014.2
20 24.05 З 4-5
{6}
н/о н/о +14.5 +8.3 66 +13 +13 по сезону 1020.5 1014.6
21 24.05 З 3-5
{8}
н/о н/о +13.6 +8.5 71 +13 +13 по сезону 1020.7 1014.8
23 24.05 З 3-4
{5}
н/о н/о +11.8 +8.2 79 +10 +10 по сезону 1021.1 1015.1
22 24.05 З 4-5
{5}
н/о н/о +12.7 +8.6 76 +11 +11 по сезону 1020.9 1015.0
00 25.05 СЗ 3 н/о н/о +10.9 +7.8 81 +9 +9 по сезону 1021.1 1015.1
01 25.05 З 3-4
{4}
н/о н/о +10.7 +7.8 82 +9 +9 по сезону 1020.9 1014.9
02 25.05 З 3-4
{5}
н/о н/о +10.0 +7.5 84 +8 +8 прохладно 1020.8 1014.8
03 25.05 З 3-4
{5}
н/о н/о +9.9 +7.6 86 +8 +8 прохладно 1020.8 1014.8
05 25.05 З 4-5
{6}
н/о н/о +11.1 +8.5 84 +9 +9 по сезону 1021.2 1015.2
04 25.05 З 3-4
{4}
н/о н/о +10.0 +7.8 86 +8 +8 прохладно 1021.0 1015.0
06 25.05 З 3 н/о н/о +12.8 +9.2 79 +11 +11 по сезону 1021.2 1015.3 +9.7 +15.3
07 25.05 З 4-6
{7}
н/о н/о +13.5 +9.2 75 +12 +12 прохладно 1021.3 1015.4
08 25.05 З 4-7
{7}
н/о н/о +15.3 +9.1 66 +14 +14 по сезону 1021.3 1015.4
09 25.05 З 4 н/о н/о +16.3 +8.4 59 +16 +16 по сезону 1021.4 1015.5
11 25.05 З 6-9
{10}
н/о н/о +15.6 +9.5 67 +14 +14 холодно 1021.7 1015.8
10 25.05 З 7-9
{9}
н/о н/о +15.8 +9.0 64 +14 +14 холодно 1021.5 1015.6
12 25.05 З 5-8
{10}
н/о н/о +15.7 +9.6 67 +15 +15 прохладно 1021.8 1015.9
13 25.05 СЗ 5-7
{9}
н/о н/о +15.9 +8.8 63 +15 +15 прохладно 1021.6 1015.7
14 25.05 З 3-6
{7}
н/о н/о +16.7 +9.2 61 +17 +17 по сезону 1021.4 1015.5
15 25.05 СЗ 5-7
{9}
н/о н/о +17.9 +9.2 57 +18 +18 по сезону 1021.0 1015.2
17 25.05 СЗ 5-7
{7}
н/о н/о +18.9 +8.9 52 +19 +19 тепло 1020.1 1014.3
16 25.05 С 2-3
{6}
н/о н/о +18.6 +9.2 54 +20 +20 тепло 1020.5 1014.7
18 25.05 СЗ 3 н/о н/о +18.7 +8.8 53 +19 +19 тепло 1019.7 1013.9 +12.9 +19.4
19 25.05 СЗ 5-7
{7}
н/о н/о +17.8 +8.3 54 +17 +17 тепло 1019.8 1014.0
20 25.05 СЗ 4-5
{8}
н/о н/о +15.8 +7.3 57 +15 +15 тепло 1020.5 1014.6
21 25.05 СЗ 3-3
{8}
н/о н/о +14.0 +7.4 64 +13 +13 по сезону 1020.7 1014.8
23 25.05 З 2-2
{2}
н/о н/о +13.2 +7.8 70 +13 +13 тепло 1020.8 1014.9
22 25.05 СЗ 2-3
{4}
н/о н/о +13.2 +7.3 67 +13 +13 тепло 1020.8 1014.9
00 26.05 З 1 н/о н/о +12.2 +7.5 73 +12 +12 по сезону 1020.6 1014.7
01 26.05 З 2-3
{3}
н/о н/о +12.3 +8.5 78 +11 +11 по сезону 1020.5 1014.6
02 26.05 З 2-3
{4}
н/о н/о +12.3 +9.7 84 +11 +11 по сезону 1020.6 1014.7
03 26.05 СЗ 3-5
{5}
н/о н/о +12.4 +10.9 91 +11 +11 по сезону 1020.6 1014.7
05 26.05 СЗ 3-5
{5}
н/о н/о +14.1 +12.3 89 +13 +13 тепло 1020.7 1014.8
04 26.05 З 2-4
{4}
н/о н/о +13.0 +11.4 90 +12 +12 по сезону 1020.7 1014.8
06 26.05 З 4 н/о н/о +13.4 +12.1 92 +12 +12 по сезону 1021.1 1015.2 +11.9 +18.9
07 26.05 СЗ 5-6
{8}
н/о н/о +14.0 +12.3 89 +12 +12 прохладно 1021.5 1015.6
08 26.05 З 5-7
{7}
н/о н/о +14.6 +12.3 86 +13 +13 прохладно 1021.6 1015.7
09 26.05 З 5 н/о н/о +16.2 +12.4 78 +15 +15 по сезону 1021.6 1015.7
11 26.05 З 4-7
{8}
н/о н/о +20.4 +13.8 66 +23 +23 комфорт 1021.2 1015.4
10 26.05 СЗ 4-7
{7}
н/о н/о +18.0 +12.6 71 +18 +18 по сезону 1021.5 1015.7
12 26.05 С 5-7
{8}
н/о н/о +21.6 +13.0 58 +24 +24 комфорт 1021.0 1015.3
13 26.05 З 4-7
{8}
н/о н/о +23.4 +12.9 52 +26 +26 жарко 1020.7 1015.0
14 26.05 С 3-5
{7}
н/о н/о +22.2 +12.3 53 +25 +25 комфорт 1020.5 1014.8
15 26.05 С 4-6
{8}
н/о н/о +22.8 +11.3 48 +25 +25 комфорт 1020.2 1014.5
17 26.05 СВ 4-6
{8}
н/о н/о +23.1 +11.9 49 +26 +26 жарко 1020.0 1014.3
16 26.05 С 4-6
{8}
н/о н/о +23.7 +10.6 44 +25 +25 комфорт 1020.0 1014.3
18 26.05 СВ 4 н/о н/о +21.6 +11.8 54 +24 +24 комфорт 1020.2 1014.5 +13.4 +24.3
19 26.05 СВ 4-5
{5}
н/о н/о +19.7 +10.9 57 +21 +21 комфорт 1020.6 1014.8
20 26.05 СВ 4-4
{4}
н/о н/о +17.7 +11.4 67 +17 +17 тепло 1021.2 1015.4
21 26.05 СВ 2-3
{5}
н/о н/о +16.4 +11.4 72 +17 +17 тепло 1021.9 1016.0
23 26.05 В 2-2
{3}
н/о н/о +15.9 +12.1 78 +16 +16 тепло 1022.6 1016.7
22 26.05 СВ 2-3
{5}
н/о н/о +16.3 +11.8 75 +16 +16 тепло 1022.2 1016.3
00 27.05 В 2 н/о н/о +14.6 +11.4 81 +14 +14 тепло 1022.6 1016.7
01 27.05 В 1-2
{3}
н/о н/о +13.4 +11.0 85 +14 +14 тепло 1022.9 1017.0
02 27.05 В 2-2
{2}
н/о н/о +12.5 +10.3 86 +12 +12 по сезону 1023.2 1017.3
03 27.05 В 2-3
{4}
н/о н/о +12.5 +10.6 88 +12 +12 по сезону 1023.3 1017.4
05 27.05 В 3-4
{5}
н/о н/о +14.8 +11.8 82 +14 +14 тепло 1023.8 1017.9
04 27.05 В 3-4
{4}
н/о н/о +13.3 +11.2 87 +12 +12 по сезону 1023.6 1017.7
06 27.05 ЮВ 2 н/о н/о +17.2 +11.6 70 +18 +18 тепло 1024.1 1018.2 +12.4 +21.6
07 27.05 ЮВ 2-3
{4}
н/о н/о +19.8 +11.3 58 +22 +22 комфорт 1024.3 1018.5
08 27.05 ЮВ 2-4
{5}
н/о н/о +21.3 +9.9 48 +23 +23 комфорт 1024.5 1018.7
09 27.05 ЮВ 2 н/о н/о +22.9 +7.7 38 +24 +24 комфорт 1024.2 1018.5
11 27.05 Ю 3-5
{6}
н/о н/о +24.8 +8.9 36 +25 +25 комфорт 1023.6 1017.9
10 27.05 В 3-5
{6}
н/о н/о +23.8 +8.1 37 +24 +24 комфорт 1023.9 1018.2
12 27.05 В 3-6
{8}
н/о н/о +26.1 +8.9 34 +26 +26 жарко 1023.1 1017.4
13 27.05 В 3-7
{7}
н/о н/о +26.2 +8.3 32 +26 +26 жарко 1022.8 1017.1
14 27.05 В 3-6
{7}
н/о н/о +26.5 +8.2 31 +26 +26 жарко 1022.1 1016.4

 

Местоположение метеостанции Berlin (Германия): широта 52.47 долгота 13.40 высота над уровнем моря 50 м.

В архиве по умолчанию представлена погода в Berlin за последнюю неделю. Архивные данные за месяц целиком и за предыдущие месяцы, начиная с января 2011 года, Вы можете получить, выбрав интересующий диапазон дат из раскрывающегося списка и нажав кнопку "Ввод!".

Внимание! Время в таблицах - всемирное. Для получения местного времени необходимо прибавить поправку, которая в Berlin равна 1 ч.

Смотрите также архив погоды в соседних городах и на ближайших метеорологических станциях:

Погода в Berlin-Dahlem (Германия) (7 км)
Погода в Berlin-Tegel (Германия) (12 км)
Погода в Berlin-Schonefeld (Германия) (13 км)
Погода в Potsdam (Германия) (25 км)
Погода в Baruth (Германия) (42 км)
Погода в Lindenberg (Германия) (56 км)
Погода в Neuruppin (Германия) (62 км)
Погода в Angermuende (Германия) (74 км)
Погода в Wiesenburg (Германия) (74 км)
Погода в Manschnow (Германия) (78 км)

Пояснения к столбцам:

Ветер - указаны скорость ветра в м/с - средняя за 10 мин, порывы в срок и между сроками (в фигурных скобках) и направление, откуда дует ветер: С - северный, СВ - северо-восточный, В - восточный, ЮВ - юго-восточный, Ю - южный, ЮЗ - юго-западный, З - западный, СЗ - северо-западный.
Видимость - горизонтальная дальность видимости в метрах или километрах. При видимости от 1 до 10 км при отсутствии осадков обычно наблюдается дымка, при ухудшении видимости до 1 км и менее - туман. В сухую погоду видимость может ухудшаться дымом, пылью или мглою.
Явления - указаны атмосферные явления, наблюдавшиеся в срок или в последний час перед сроком; фигурными скобками обозначены явления, наблюдавшиеся между сроками (за 1-3 часа до срока); квадратными скобками обозначены град или гололедные отложения с указанием их диаметра в мм.
Облачность - указаны через наклонную черту общая и нижняя облачность в баллах и высота нижней границы облаков в метрах; квадратными скобками обозначены формы облаков: Ci - перистые, Cs - перисто-слоистые, Cc - перисто-кучевые, Ac - высококучевые, As - высокослоистые, Sc - слоисто-кучевые, Ns - слоисто-дождевые, Cu - кучевые, Cb - кучево-дождевые. Подробнее классификацию облаков см. в Атласе облаков (PDF).
T - Температура воздуха - температура, измеренная на высоте 2 м над землей.
Td - Температура точки росы - температура, при понижении до которой содержащийся в воздухе водяной пар достигнет насыщения.
f - Относительная влажность воздуха - влажноcть воздуха, измеренная на высоте 2 м над землей.
Te - Эффективная температура - температура, которую ощущает одетый по сезону человек в тени. Характеристика душности погоды. При расчете учитывается влияние влажности воздуха и скорости ветра на теплоощущения человека.
Tes - Эффективная температура на солнце - температура, которую ощущает человек, с поправкой на солнечный нагрев. Характеристика знойности погоды. Зависит от высоты солнца над горизонтом, облачности и скорости ветра. Ночью, в пасмурную погоду, а также при ветре 12 м/с и более поправка равна нулю.
P - Атмосферное давление - приведенное к уровню моря атмосферное давление.
Po - Атмосферное давление - измеренное на уровне метеостанции атмосферное давление.
Tmin - Минимальная температура - минимум температуры воздуха на высоте 2 м над землей.
Tmax - Максимальная температура - максимум температуры воздуха на высоте 2 м над землей.
R - Количество осадков - Количество выпавших осадков за период времени, мм. При наведении курсора мыши на число - период времени, за который выпало указанное количество осадков.
R24 - Количество осадков - Количество выпавших осадков за 24 часа, мм.
S - Снежный покров - Высота снежного покрова, см. При наведении курсора мыши на число - состояние снежного покрова и степень покрытия местности в баллах.